FENGYUN 1C DEB

Satellite information

Favourite Embed

Satellite Type and Status

DEBRISIN ORBIT

Key statistics

Satellite FENGYUN 1C DEB at a glance.

Uptime

9495

Days in orbit

Revolutions

≈ 14.2

Per day

Orbit

SSO

Sun Synchronous Orbit

Inclination

98.6

Latest

Satellite identification and parameters

Extended collection of information and parameters for FENGYUN 1C DEB.

Object identification

Identified? True

Debris? True

Object name: FENGYUN 1C DEB

International designator: 1999-025DHM

Object number (NORAD): 33724

Object ID (CCSDS): 33724

Country: PEOPLES REPUBLIC OF CHINA (PRC)

Current information (Y/N): Y

RCS size: SMALL

Orbital parameters

Period: 101.468 minutes

Inclination: 98.6098 deg

SMA: 7206.294 km

Apoapsis: 849.129 km

Periapsis: 807.189 km

RAAN: 144.3494 deg

Eccentricy: 0.00291

Argument of periapsis: 95.2447 deg

Mean anomaly: 24.0852 deg

Mean motion: 14.19171276 rev/day

Mean motion (dot): 0.000011 rev/day2

B* drag term: 0.00054352 1/REarth

Two-line elements (TLE)

Creation date: May 8, 2025, 3:01 a.m.

Reference frame: TEME

Reference center: EARTH

Epoch: May 7, 2025, 9:25 p.m. UTC

TLE line 0: 0 FENGYUN 1C DEB

TLE line 1: 1 33724U 99025DHM 25127.89304694 .00001100 00000-0 54352-3 0 9998

TLE line 2: 2 33724 98.6098 144.3494 0029100 95.2447 24.0852 14.19171276908572

Live tracking on map

Real-time ground track for satellite FENGYUN 1C DEB.

In-orbit conjunctions

A list of the most updated potential collisions computed for object FENGYUN 1C DEB.

Target Orbit TCA Probability of collision Miss distance Type
AAU CUBESAT SSO 2025-04-18 20:25:50 0.0002483197 412.0 (m) PAYLOAD
SL-16 R/B LEO 2024-12-01 11:00:27 0.0002194653 843.0 (m) ROCKET BODY

Associated space launch

Chinese polar orbiting meteorological satellite

FENGYUN 1C DEB was lifted into orbit during the mission ‘Long March 4B | Feng Yun 1C’, on board a Long March 4B space rocket.

The launch took place on May 10, 1999, 1:33 a.m. from Launch Complex 7.

For more information about the launch, click the button.

Launch to space Long March 4B | Feng Yun 1C
Long March 4B | Feng Yun 1C

Agency: N/A

Status: Launch Successful

Launch date: May 10, 1999, 1:33 a.m. UTC

Rocket: Long March 4B

Launch pad: Launch Complex 7

Location: Taiyuan Satellite Launch Center, People's Republic of China

...

Latest news about this satellite

There are no fresh news available about this satellite. Check back as we update our databases every day.


Newsletter sign-up

Weekly statistics, charts and insights to help you stay on top of the space industry.